#timestamp,LO_Frequency,Hit,StdDev 
1587513615.9,286047009.4,N
1587513635.7,286047011.2,N
1587513655.5,286047016.7,Y
1587513675.4,286047011.5,P
1587513695.2,286047014.2,P
1587513715.1,286047017.1,P
1587513716.0,286047017.1,Y
1587513735.8,286046998.5,P
1587513755.6,286046992.7,N
1587513775.5,286046988.0,N
1587513795.3,286046983.8,N
1587513815.1,286046981.3,N
1587513835.9,286046975.2,N
1587513855.7,286046964.9,Y
1587513875.6,286046972.6,P
1587513895.4,286046976.8,N
1587513915.2,286046981.2,N
1587513935.1,286046989.9,N
1587513936.0,286046989.9,N
1587513955.8,286046987.8,N
1587513975.6,286046987.6,N
1587513995.5,286046986.1,N
1587514015.3,286046983.8,N
1587514035.2,286046982.0,Y
1587514055.9,286046990.0,P
1587514075.7,286046986.3,P
1587514095.6,286046988.9,P
1587514115.4,286046990.9,Y
1587514135.3,286047012.4,P
1587514155.1,286047013.0,N
1587514156.0,286047013.0,N
1587514175.8,286047013.5,N
1587514195.7,286047018.7,N
1587514215.5,286047017.4,N
1587514235.3,286047018.1,N
1587514255.2,286047022.1,N
1587514275.0,286047024.5,N
1587514275.9,286047024.5,N
1587514295.8,286047025.7,N
1587514315.6,286047029.9,Y
1587514335.4,286047016.8,P
1587514355.3,286047016.7,P
1587514375.1,286047012.6,P
1587514395.9,286047018.0,Y
1587514415.7,286047001.4,P
1587514435.5,286047003.0,N
1587514455.4,286047006.4,N
1587514475.2,286047013.2,N
1587514495.0,286047014.0,N
1587514495.9,286047014.0,N
1587514515.8,286047013.5,N
1587514535.6,286047013.8,N
1587514555.5,286047016.7,Y
1587514575.3,286047000.3,P
1587514595.1,286047000.3,N
1587514615.9,286047006.1,N
1587514635.7,286047009.4,N
1587514655.5,286047009.9,N
1587514675.4,286047006.1,N
1587514695.2,286047017.1,Y
1587514715.1,286047012.9,P
1587514716.0,286047012.9,P
1587514735.8,286047018.3,P
1587514755.6,286047019.7,Y
1587514775.5,286047008.7,P
1587514795.3,286047008.0,P
1587514815.1,286047011.2,P
1587514835.9,286047013.6,Y
1587514855.7,286047002.9,P
1587514875.6,286047005.9,N
1587514895.4,286047006.7,N
1587514915.2,286047008.0,Y
1587514935.1,286047011.9,P
1587514936.0,286047004.2,N
1587514955.8,286047004.2,N
1587514975.7,286047003.9,N
1587514995.5,286047001.9,N
1587515015.3,286047002.7,N
1587515035.2,286047002.0,N
1587515055.0,286047000.2,N
1587515055.9,286047000.2,N
1587515075.7,286046996.1,N
1587515095.6,286046989.6,N
1587515115.4,286046984.6,N
1587515135.3,286046980.7,N
1587515155.1,286046981.0,N
1587515156.0,286046981.0,N
1587515175.8,286046981.8,N
1587515195.7,286046982.8,N
1587515215.5,286046984.0,N
1587515235.3,286046983.0,N
1587515255.2,286046982.6,N
1587515275.0,286046989.4,N
1587515275.9,286046989.4,N
1587515295.8,286046990.0,N
1587515315.6,286046990.4,N
1587515335.5,286046992.1,N
1587515355.3,286046995.4,N
1587515375.1,286046993.4,N
1587515395.9,286046997.1,N
1587515415.7,286046996.1,N
1587515435.5,286046987.3,N
1587515455.4,286046987.3,N
1587515475.2,286046988.2,N
1587515495.1,286046983.8,N
1587515496.0,286046983.8,N
1587515515.8,286046984.4,N
1587515535.7,286046983.8,N
1587515555.5,286046989.5,N
1587515575.3,286046990.6,N
1587515595.2,286046992.3,N
1587515615.0,286046998.0,N
1587515615.9,286046998.0,N
1587515635.8,286046995.0,N
1587515655.6,286046995.8,N
1587515675.4,286046997.3,N
1587515695.3,286046997.1,N
1587515715.1,286046992.5,N
1587515735.9,286046988.5,N
1587515755.7,286046985.5,N
1587515775.5,286046984.9,Y
1587515795.4,286046992.3,P
1587515815.2,286046992.5,P
1587515835.0,286046987.2,P
1587515836.0,286046987.2,Y
1587515855.8,286046997.0,P
1587515875.6,286046999.6,N
1587515895.5,286046998.6,N
1587515915.3,286047003.3,N
1587515935.1,286047009.2,N
1587515955.9,286047003.3,N
1587515975.7,286047001.0,N
1587515995.6,286046997.1,N
1587516015.4,286046996.4,N
1587516035.2,286046995.4,N
1587516055.1,286046994.9,N
1587516056.0,286046994.9,N
1587516075.8,286046996.1,N
1587516095.7,286046997.4,N
1587516115.5,286046993.3,N
1587516135.3,286046992.8,N
1587516155.2,286046989.5,N
1587516175.0,286046987.6,N
1587516175.9,286046987.6,N
1587516195.8,286046986.0,N
1587516215.6,286046984.5,N
1587516235.4,286046982.4,N
1587516255.3,286046980.1,Y
1587516275.1,286046983.2,P
1587516295.9,286046984.6,N
1587516315.7,286046980.8,P
1587516335.5,286046984.2,N
1587516355.4,286046983.6,Y
1587516375.2,286046999.5,P
1587516395.1,286046999.1,N
1587516396.0,286046999.1,N
1587516415.8,286046997.8,N
1587516435.6,286046994.9,N
1587516455.5,286046996.8,N
1587516475.3,286046997.0,N
1587516495.1,286046992.7,N
1587516515.9,286046988.3,N
1587516535.7,286046985.8,Y
1587516555.6,286046991.8,P
1587516575.4,286046996.3,N
1587516595.2,286046992.3,P
1587516615.1,286046994.7,N
1587516616.0,286046986.3,Y
1587516635.8,286046998.0,P
1587516655.7,286046997.6,N
1587516675.5,286046999.8,N
1587516695.4,286046999.8,N
1587516715.2,286047005.5,N
1587516735.0,286047000.2,N
1587516736.0,286047000.2,N
1587516755.8,286046996.9,N
1587516775.6,286046994.1,N
1587516795.5,286046994.8,N
1587516815.3,286046999.0,N
1587516835.2,286046998.8,N
1587516855.9,286047000.8,N
1587516875.7,286047002.2,N
1587516895.6,286047005.0,N
1587516915.4,286047010.4,Y
1587516935.3,286047011.1,P
1587516955.1,286047016.4,N
1587516956.0,286047016.4,N
1587516975.8,286047015.3,N
1587516995.7,286047016.3,N
1587517015.5,286047011.0,N
1587517035.3,286047010.9,N
1587517055.2,286047011.5,N
1587517075.0,286047016.7,Y
1587517075.9,286047016.7,P
1587517095.8,286047004.7,N
1587517115.6,286047010.7,N
1587517135.4,286047009.3,N
1587517155.3,286047012.9,Y
1587517175.1,286047008.2,P
1587517195.9,286047015.3,P
